Location: Caltech
(34.1382°N, 118.1253°W)
Time: 13:56:23
(UTC-07:00)

Cosmos 1626 - Visible Passes

Search period start: 19 July 2018 00:00
Search period end: 29 July 2018 00:00
Orbit: 493 x 499 km, 82.5° (Epoch: 18 July)

Date Brightness Start Highest point End Pass type
(mag) Time Alt. Az. Time Alt. Az. Time Alt. Az.
21 Jul 6.0 05:25:34 10° ENE 05:26:20 10° ENE 05:27:05 10° E visible
26 Jul 4.7 05:13:00 10° NNE 05:16:07 25° ENE 05:19:12 10° SE visible
27 Jul 5.2 04:52:25 10° NE 04:54:54 17° ENE 04:57:22 10° ESE visible
28 Jul 5.5 04:32:23 10° NE 04:33:39 11° ENE 04:34:56 10° E visible
